Regional Weather Roundup
Issued by NWS

Home | Current Version | Previous Version | Graphics & Text | Print | Product List | Glossary On
Versions: 1 2 3 4 5 6 7 8 9 10 11 12 13 14 15 16 17 18 19 20 21 22 23 24 25 26 27 28 29 30 31 32 33 34 35 36 37 38 39 40 41 42 43 44 45 46 47 48 49 50
000
ASUS43 KMPX 161501
RWRMN
WEATHER ROUNDUP FOR MINNESOTA
NATIONAL WEATHER SERVICE TWIN CITIES/CHANHASSEN MN
900 AM CST MON JAN 16 2017


NOTE: "FAIR" INDICATES FEW OR NO CLOUDS BELOW 12,000 FEET WITH NO
SIGNIFICANT WEATHER AND/OR OBSTRUCTIONS TO VISIBILITY. N/A MEANS
CURRENT SKY AND/OR WEATHER CONDITIONS ARE NOT AVAILABLE.

MNZ060>063-068>070-161600-
   Twin Cities Metro

CITY           SKY/WX    TMP DP  RH WIND       PRES   REMARKS
TWIN CITIES    CLOUDY    18  13  80 CALM      30.17F
ST PAUL        PTCLDY    15  13  91 CALM      30.19F
CRYSTAL        PTCLDY    10   7  87 CALM      30.16S
BLAINE         MOCLDY    16  16 100 CALM      30.16F
LAKEVILLE        N/A     10  10 100 CALM      30.16S FOG
EDEN PRAIRIE   CLOUDY    18  14  84 NE5       30.15F WCI  11
SOUTH ST PAUL  CLOUDY    13  10  89 CALM      30.17F FOG
LAKE ELMO      FAIR      10   9  92 CALM      30.18F
$$
MNZ001>005-007-008-013>017-022>024-027-028-161600-
   Northwest Minnesota

CITY           SKY/WX    TMP DP  RH WIND       PRES   REMARKS
BEMIDJI        CLOUDY     8   6  91 S5        30.06R FOG     WCI   0
HALLOCK        CLOUDY     3   0  85 SE10      30.03S WCI -12
ROSEAU         CLOUDY     1  -2  85 CALM      30.04S
WARROAD        CLOUDY     7   1  78 CALM      30.04R
THIEF RVR FALL CLOUDY    10   6  84 SW9       30.07R WCI  -3
CROOKSTON      CLOUDY     7   3  85 S7        30.09S WCI  -5
FOSSTON        CLOUDY    12  10  92 S12       30.07S WCI  -2
DETROIT LAKES    N/A     12  10  92 CALM      30.09S FOG
MOORHEAD       CLOUDY    10   9  92 S6        30.10S FOG     WCI   1
PARK RAPIDS    LGT SNOW   7   2  80 SE7       30.07S WCI  -5
MAHNOMEN       FAIR      13  10  87 S9        30.08R WCI   1
$$
MNZ006-009>011-018-025>026-161600-
   North Central Minnesota

CITY           SKY/WX    TMP DP  RH WIND       PRES   REMARKS
BAUDETTE       CLOUDY     3   0  87 SE3       30.04R
FLAG ISLAND    CLOUDY     3   0  85 SE6       30.04S WCI  -8
INTL FALLS     CLOUDY     2  -1  88 CALM      30.06R
WASKISH        CLOUDY    10   9  92 SW3       30.05R
BIG FORK       CLOUDY    10   7  85 S6        30.07S FOG     WCI   1
LONGVILLE      CLOUDY     1   0  92 CALM      30.10S
GRAND RAPIDS   CLOUDY    14  12  92 S8        30.10F FOG     WCI   3
CRANE LAKE     CLOUDY     1  -2  85 CALM      30.11R
ORR            CLOUDY    12   9  85 CALM      30.05S
COOK           CLOUDY     5   1  85 CALM      30.09R
WALKER         FAIR      17  15  90 CALM      30.08R
$$
MNZ012-019>021-037-161600-
   Northeast Minnesota

CITY           SKY/WX    TMP DP  RH WIND       PRES   REMARKS
DULUTH         CLOUDY    16  14  92 W9        30.10S WCI   4
ELY            CLOUDY     1   0  92 CALM      30.09R
HIBBING        FOG       -2  -3  96 NW3       30.11R VSB 1/4
EVELETH        FOG        1  -4  81 CALM      30.12S VSB<1/4
DULUTH HARBOR  CLOUDY    16  12  86 CALM      30.17S FOG
TWO HARBORS    CLOUDY    14   9  79 S7        30.10F HAZE    WCI   4
SILVER BAY     CLOUDY     9   7  92 CALM      30.10S FOG
G MARAIS ARPRT CLOUDY    19  10  68 CALM      30.06R
$$
MNZ029>031-032-039>041-046>048-054>057-064-161600-
   West Central Minnesota

CITY           SKY/WX    TMP DP  RH WIND       PRES   REMARKS
FERGUS FALLS   CLOUDY    12   9  85 S9        30.14F WCI   0
WHEATON        CLOUDY    10   9  92 E5        30.12R WCI   2
MORRIS         CLOUDY    10   7  85 SE6       30.09F WCI   1
ALEXANDRIA     CLOUDY    10   8  92 SE5       30.09F FOG     WCI   2
ELBOW LAKE     FAIR      14  11  89 SE7       30.09S FOG     WCI   3
WADENA         CLOUDY     1  -2  85 CALM      30.08F
GLENWOOD       CLOUDY    12  10  92 S3        30.10S
APPLETON       CLOUDY     7   1  78 CALM      30.11F
ORTONVILLE     PTCLDY    10   9  92 CALM      30.10S
MADISON        CLOUDY    10   7  85 CALM      30.11F
WILLMAR        FAIR      10   9  92 CALM      30.12F FOG
$$
MNZ033>034-036-042>043-049>051-058-059-161600-
   Central Minnesota

CITY           SKY/WX    TMP DP  RH WIND       PRES   REMARKS
ST CLOUD       CLOUDY     5   3  91 SE3       30.15R FOG
SAUK CENTRE    FAIR       2  -1  88 CALM      30.11F FOG
PAYNESVILLE    CLOUDY    15  15 100 SE3       30.12F FOG
AITKIN         CLOUDY    12   9  85 CALM      30.10S HAZE
PINE RIVER     CLOUDY     3   0  85 CALM      30.13F FOG
BRAINERD       CLOUDY     4   1  88 NW3       30.11S FOG
STAPLES        CLOUDY     5   1  85 CALM      30.09F FOG
LONG PRAIRIE   FAIR       3   1  92 CALM      30.11S FOG
LITTLE FALLS   CLOUDY     3   0  85 CALM      30.14R
LITCHFIELD     CLOUDY    14  12  92 CALM      30.13F FOG
BUFFALO        CLOUDY    10   8  90 CALM      30.16F
MAPLE LAKE     CLOUDY     8   6  92 CALM      30.15F FOG
HUTCHINSON     CLOUDY    22  19  91 E5        30.14F WCI  15
$$
MNZ037-044-045-052-053-161600-
   East Central Minnesota

CITY           SKY/WX    TMP DP  RH WIND       PRES   REMARKS
PRINCETON      CLOUDY     7   3  85 CALM      30.16R FOG
MORA           CLOUDY     1  -2  85 CALM      30.17S
CAMBRIDGE      CLOUDY     9   1  72 CALM      30.15S HAZE
RUSH CITY        N/A      5   3  92 S3        30.17F
MOOSE LAKE     PTCLDY     9   5  85 CALM      30.13S FOG
HINCKLEY       FAIR       3   1  92 CALM      30.16S FOG
CLOQUET        PTCLDY    16  12  86 SW5       30.11F FOG     WCI   9
MCGREGOR       CLOUDY    12  10  92 CALM      30.12F
$$
MNZ071>073-080-081-089-090-097-098-161600-
   Southwest Minnesota

CITY           SKY/WX    TMP DP  RH WIND       PRES   REMARKS
MONTEVIDEO     PTCLDY    16  16 100 CALM      30.13F
GRANITE FALLS  PTCLDY    13  11  92 CALM      30.13S
CANBY            N/A     16  13  87 CALM      30.11F
MARSHALL       CLOUDY    16  14  92 W5        30.10F WCI   9
REDWOOD FALLS  CLOUDY    21  17  84 NE5       30.12S WCI  15
OLIVIA         CLOUDY    21  18  86 CALM      30.11F
PIPESTONE      CLOUDY    23  19  86 NE3       30.05F
WINDOM         CLOUDY    27  25  93 CALM      30.09S
WORTHINGTON    CLOUDY    26  23  88 NE6       30.07R WCI  19
JACKSON        CLOUDY    27  27 100 NE6       30.08S FOG     WCI  20
TRACY          CLOUDY    24  20  86 CALM      30.10R
SLAYTON        CLOUDY    22  20  90 CALM      30.07F
$$
MNZ065>067-074>077-082>085-091>093-161600-
   South Central Minnesota

CITY           SKY/WX    TMP DP  RH WIND       PRES   REMARKS
MANKATO        CLOUDY    24  19  81 E6        30.14S WCI  17
NEW ULM        CLOUDY    23  18  80 SE5       30.12F WCI  17
ST JAMES       CLOUDY    23  21  93 CALM      30.13S
FAIRMONT       CLOUDY    28  27  96 NE3       30.10S FOG
GLENCOE        CLOUDY    21  19  93 CALM      30.14F
FARIBAULT        N/A     16  12  86 CALM      30.15S
OWATONNA       CLOUDY    23  18  80 E5        30.13S WCI  17
WASECA         CLOUDY    23  19  86 NE7       30.13F WCI  15
ALBERT LEA     CLOUDY    28  28 100 SE6       30.11S FOG     WCI  22
$$
MNZ078>079-086>088-094>096-161600-
   Southeast Minnesota

CITY           SKY/WX    TMP DP  RH WIND       PRES   REMARKS
ROCHESTER      CLOUDY    25  22  88 E6        30.14R WCI  18
RED WING       CLOUDY    12   9  85 SE5       30.18S FOG     WCI   4
STANTON        CLOUDY    15  11  85 CALM      30.15F
DODGE CENTER   CLOUDY    23  18  80 CALM      30.13S
WINONA         CLOUDY    19  18  93 CALM      30.21R
AUSTIN         MIX PCPN  30  28  93 SE5       30.11F WCI  25
PRESTON        CLOUDY    27  25  94 E3        30.13F FOG
$$
ABBREVIATIONS USED IN REMARKS
   TC - TEMPERATURES IN CELSIUS
  WCI - WIND CHILL INDEX
   HX - HEAT INDEX
  VSB - VISIBILITY
$$




USA.gov is the U.S. government's official web portal to all federal, state and local government web resources and services.